Погода в Брагине

Беларусь     51°46′51″N   30°16′27″E
темп.,
°C
ветер,
м/с
пор.,
м/с
влажн.,
%
обл.,
%
осадки,
мм/ч
давл.,
гПа
погр.,
м
17 мая, пн
пн1700:00+14в349090 0.0 100951
03:00+14всв3590100 0.1 100884
06:00+13ссв3691100 0.0 1006123
09:00+14с3498100 8.7 1004177
12:00+17св3388100 1.1 1003593
15:00+19зсз2180100 1.3 1002577
18:00+18зсз3490100 0.4 1002205
21:00+15зсз369837 2.4 1001220
18 мая, вт
вт1800:00+14з2398100 0.6 1001141
03:00+14ююз2298100 0.6 100284
06:00+12юз239832 0.0 100298
09:00+16ю2284100 0.0 1003390
12:00+19юв4575100 0.1 1002956
15:00+20юв4568100 2.0 10011100
18:00+19ююв468034 2.3 1001519
21:00+15юв3491100 4.3 100172
19 мая, ср
ср1900:00+14юв239576 0.0 100143
03:00+13ююв3696100 0.1 1001136
06:00+12ююв379698 0.1 1002184
09:00+16юв458363 0.1 1003628
12:00+18ююв5675100 0.8 10031062
15:00+18ююв3469100 1.3 10041146
18:00+16ююв3483100 2.4 1004402
21:00+13юз1296100 7.6 1005116
20 мая, чт
чт2000:00+12з2398100 3.0 1004102
03:00+11зюз3498100 3.1 1004205
06:00+11зюз3596100 0.0 1003349
09:00+11ююз4696100 0.1 1003464
12:00+10юз6993100 0.3 1003799
15:00+10юз81291100 0.6 10041027
18:00+10юз81389100 0.1 1005879
21:00+9зюз81387100 0.1 1006843
21 мая, пт
пт2100:00+9зюз71288100 0.0 1006855
03:00+9з81490100 0.4 1008898
06:00+9зюз51094100 1.7 1009603
09:00+10з71183100 1.8 1012953
12:00+14з7106498 0.0 10131268
15:00+15з7854100 0.0 10141616
18:00+15зсз57625 0.0 10151686
21:00+9зсз22775 0.0 101612